Location: Newark
(48.9233°N, 29.3439°E)
Time: 14:01:37
(UTC+00:00)

Envisat - Visible Passes

Search period start: 22 September 2019 00:00
Search period end: 02 October 2019 00:00
Orbit: 764 x 766 km, 98.1° (Epoch: 22 September)

Date Brightness Start Highest point End Pass type
(mag) Time Alt. Az. Time Alt. Az. Time Alt. Az.
22 Sep 4.0 16:31:21 10° S 16:36:17 52° W 16:41:17 10° NNW visible
23 Sep 6.0 17:36:05 10° SW 17:39:07 16° W 17:42:11 10° NW visible
24 Sep 5.0 16:57:27 10° SSW 17:01:57 31° W 17:06:29 10° NNW visible
25 Sep 3.6 16:19:58 10° S 16:25:00 64° WSW 16:30:04 10° NNW visible
26 Sep 5.8 17:24:06 10° SW 17:27:43 19° W 17:31:22 10° NW visible
27 Sep 4.6 16:45:54 10° SSW 16:50:37 39° W 16:55:23 10° NNW visible
28 Sep 6.2 17:51:55 10° WSW 17:53:35 11° W 17:55:17 10° WNW visible
29 Sep 5.5 17:12:17 10° SW 17:16:20 24° W 17:20:26 10° NW visible
30 Sep 4.2 16:34:24 10° S 16:39:18 48° W 16:44:14 10° NNW visible
01 Oct 6.0 17:39:25 10° WSW 17:42:10 15° W 17:44:56 10° NW visible
